loading
|

WESTFORD NEEDLES, 602

Orbit data source: Space-Track

WESTFORD NEEDLES, 602 is space debris originally from a launch on Thu, 09 May 1963 UTC launched from the Air Force Western Test Range (AFWTR). Debris objects in space refer to the collection of defunct objects orbiting the Earth. Examples of debris include non-operational satellites, rocket bodies, and fragments generated from explosions, collisions, or faulty payload assembly.

Loading next visibility...
Loading greatness...
WESTFORD NEEDLES details
Identifier
602, 1963-014E
Orbit
Active
Last TLE update1 day ago
Origin
Flag of USUSAF SSD (US)
ManufacturerUnknown
Mission statusUnknown
MissionUnknown
Bus & MotorUnknown
Mass~10 kg wet, ~10 kg dry
Launch date (UTC)
1963-05-09 (61 years ago)
Launch vehicleUnknown
Launch site
Air Force Western Test Range (AFWTR)
Object type
Payload
Rocket body
Debris
Radar Cross SectionMedium (>0.1 m² and <1 m²)

Expand to show TLE details & history

TLE from 1 day ago
0 WESTFORD NEEDLES
1 00602U 63014E   24250.42025721 -.00000014  00000-0 -79370-2 0  9993
2 00602  87.3157 251.3977 0040944 332.4652  27.4036  8.67234355941594
Epoch: 2024-09-06T10:05Z
Definitive object data (Epoch: 2024-09-06T10:05:10.222Z)
Latitude-0.00002°
Longitude114.11206°
Altitude3,594.869 km
Speed6.334 km/s
True Right ascension16h 45m 35s
True Declination0° 00' 00"
Sunlit
Object was in daylight at TLE epoch
Predictive object data (real-time)
Latitude24.03544°
Longitude-67.20843°
Altitude3,672.177 km
Speed6.287 km/s
Apparent Right ascension02h 38m 46s
Apparent Declination0° 02' 26"
Sunlit
Object is in daylight
Predictive observer data (real-time)
Local Sidereal Time09:52:59
Azimuth282.186° WNW
Elevation-14.099°
Doppler factor1
Orbital elements
Apogee3,667.808 km
Perigee3,585.879 km
Semi-major axis10,004.981 km
Eccentricity0.0040944
Inclination87.3157°
RAAN251.3977°
Arg. of periapsis332.4652°
True anomaly27.62053°
Mean anomaly27.4036°
Eccentric anomaly27.51197°
Mean motion2.1688 °/min
BSTAR-0.007937
Period165.99 mins
No data available

WESTFORD NEEDLES Visibility forecast

Observer location: 39.9160978°, -105.1181434

WESTFORD NEEDLES is not visible in the next 10 days
Span
Click to sort rows by Start time (UTC) header in descending order
Start Az.
Max El. time (UTC)
Max El. Az.
Max El.
End time (UTC)
End Az.